Time,TemperatureF,DewpointF,PressureIn,WindDirection,WindDirectionDegrees,WindSpeedMPH,WindSpeedGustMPH,Humidity,HourlyPrecipIn,Conditions,Clouds,dailyrainin,SolarRadiationWatts/m^2,SoftwareType,DateUTC
2013-05-20 00:02:00,63.7,56.7,29.91,SSE,153,3.5,3.5,78,0.00,CLR,,0.00,0.0,WeatherDisplay:10.37,2013-05-20 07:02:00,
2013-05-20 00:07:00,63.6,56.6,29.91,SSE,153,2.3,2.3,78,0.00,CLR,,0.00,0.0,WeatherDisplay:10.37,2013-05-20 07:07:00,
2013-05-20 00:12:00,63.6,56.6,29.91,SSE,154,3.5,3.5,78,0.00,CLR,,0.00,0.0,WeatherDisplay:10.37,2013-05-20 07:12:00,
2013-05-20 00:17:00,63.6,57.0,29.91,SSE,155,3.5,3.5,79,0.00,CLR,,0.00,0.0,WeatherDisplay:10.37,2013-05-20 07:17:00,
2013-05-20 00:22:00,63.6,57.0,29.91,SSE,157,3.5,3.5,79,0.00,CLR,,0.00,0.0,WeatherDisplay:10.37,2013-05-20 07:22:00,
2013-05-20 00:27:00,63.5,57.2,29.91,SSE,158,3.5,3.5,80,0.00,CLR,,0.00,0.0,WeatherDisplay:10.37,2013-05-20 07:27:00,
2013-05-20 00:32:00,63.4,57.1,29.91,SSE,158,1.1,1.1,80,0.00,CLR,,0.00,0.0,WeatherDisplay:10.37,2013-05-20 07:32:00,
2013-05-20 00:37:00,63.4,57.1,29.91,SSE,158,1.1,0.0,80,0.00,CLR,,0.00,0.0,WeatherDisplay:10.37,2013-05-20 07:37:00,
2013-05-20 00:42:00,63.3,57.0,29.91,SSE,158,2.3,2.3,80,0.00,CLR,,0.00,0.0,WeatherDisplay:10.37,2013-05-20 07:42:00,
2013-05-20 00:47:00,63.3,57.4,29.91,SSE,158,2.3,2.3,81,0.00,CLR,,0.00,0.0,WeatherDisplay:10.37,2013-05-20 07:47:00,
2013-05-20 00:52:00,63.3,57.4,29.91,SSE,158,2.3,2.3,81,0.00,CLR,,0.00,0.0,WeatherDisplay:10.37,2013-05-20 07:52:00,
2013-05-20 00:57:00,63.3,57.4,29.91,SSE,158,1.1,0.0,81,0.00,CLR,,0.00,0.0,WeatherDisplay:10.37,2013-05-20 07:57:00,
2013-05-20 01:02:00,63.2,57.3,29.91,SSE,158,0.0,0.0,81,0.00,CLR,,0.00,0.0,WeatherDisplay:10.37,2013-05-20 08:02:00,
2013-05-20 01:07:00,63.1,57.2,29.91,SSE,158,0.0,0.0,81,0.00,CLR,,0.00,0.0,WeatherDisplay:10.37,2013-05-20 08:07:00,
2013-05-20 01:12:00,63.1,57.2,29.91,SSE,158,1.1,0.0,81,0.00,CLR,,0.00,0.0,WeatherDisplay:10.37,2013-05-20 08:12:00,
2013-05-20 01:17:00,63.0,57.1,29.91,SSE,158,1.1,1.1,81,0.00,CLR,,0.00,0.0,WeatherDisplay:10.37,2013-05-20 08:17:00,
2013-05-20 01:22:00,63.0,57.4,29.91,SSE,158,2.3,2.3,82,0.00,CLR,,0.00,0.0,WeatherDisplay:10.37,2013-05-20 08:22:00,
2013-05-20 01:27:00,62.9,57.3,29.91,SSE,158,1.1,0.0,82,0.00,CLR,,0.00,0.0,WeatherDisplay:10.37,2013-05-20 08:27:00,
2013-05-20 01:32:00,62.9,57.7,29.91,SSE,158,1.1,0.0,83,0.00,CLR,,0.00,0.0,WeatherDisplay:10.37,2013-05-20 08:32:00,
2013-05-20 01:37:00,62.8,57.6,29.91,SSE,158,1.0,1.0,83,0.00,CLR,,0.00,0.0,WeatherDisplay:10.37,2013-05-20 08:37:00,
2013-05-20 01:42:00,62.7,57.5,29.91,SSE,158,1.1,0.0,83,0.00,CLR,,0.00,0.0,WeatherDisplay:10.37,2013-05-20 08:42:00,
2013-05-20 01:47:00,62.7,57.5,29.91,SSE,158,2.3,2.3,83,0.00,CLR,,0.00,0.0,WeatherDisplay:10.37,2013-05-20 08:47:00,
2013-05-20 01:52:00,62.6,57.4,29.91,SSE,158,1.1,1.1,83,0.00,CLR,,0.00,0.0,WeatherDisplay:10.37,2013-05-20 08:52:00,
2013-05-20 01:57:00,62.5,57.3,29.91,SSE,158,1.1,1.1,83,0.00,CLR,,0.00,0.0,WeatherDisplay:10.37,2013-05-20 08:57:00,
2013-05-20 02:02:00,62.5,57.3,29.91,SSE,158,2.3,2.3,83,0.00,CLR,,0.00,0.0,WeatherDisplay:10.37,2013-05-20 09:02:00,
2013-05-20 02:07:00,62.5,57.3,29.91,SSE,158,1.1,1.1,83,0.00,CLR,,0.00,0.0,WeatherDisplay:10.37,2013-05-20 09:07:00,
2013-05-20 02:12:00,62.5,57.3,29.91,SSE,158,2.3,2.3,83,0.00,CLR,,0.00,0.0,WeatherDisplay:10.37,2013-05-20 09:12:00,
2013-05-20 02:17:00,62.5,57.3,29.91,SSE,158,1.1,1.1,83,0.00,CLR,,0.00,0.0,WeatherDisplay:10.37,2013-05-20 09:17:00,
2013-05-20 02:22:00,62.5,57.3,29.91,SSE,158,1.1,1.1,83,0.00,CLR,,0.00,0.0,WeatherDisplay:10.37,2013-05-20 09:22:00,
2013-05-20 02:27:00,62.3,57.1,29.90,SSE,158,0.0,0.0,83,0.00,CLR,,0.00,0.0,WeatherDisplay:10.37,2013-05-20 09:27:00,
2013-05-20 02:32:00,62.1,56.9,29.91,SSE,158,0.0,0.0,83,0.00,CLR,,0.00,0.0,WeatherDisplay:10.37,2013-05-20 09:32:00,
2013-05-20 02:37:00,61.8,56.6,29.90,SSE,158,0.0,0.0,83,0.00,CLR,,0.00,0.0,WeatherDisplay:10.37,2013-05-20 09:37:00,
2013-05-20 02:42:00,61.6,56.4,29.90,SSE,158,0.0,0.0,83,0.00,CLR,,0.00,0.0,WeatherDisplay:10.37,2013-05-20 09:42:00,
2013-05-20 02:47:00,61.3,56.4,29.90,SSE,158,0.0,0.0,84,0.00,CLR,,0.00,0.0,WeatherDisplay:10.37,2013-05-20 09:47:00,
2013-05-20 02:52:00,61.1,56.2,29.90,SSE,158,0.0,0.0,84,0.00,CLR,,0.00,0.0,WeatherDisplay:10.37,2013-05-20 09:52:00,
2013-05-20 02:57:00,60.8,55.9,29.90,SSE,158,0.0,0.0,84,0.00,CLR,,0.00,0.0,WeatherDisplay:10.37,2013-05-20 09:57:00,
2013-05-20 03:02:00,60.7,56.2,29.90,SSE,158,0.0,0.0,85,0.00,CLR,,0.00,0.0,WeatherDisplay:10.37,2013-05-20 10:02:00,
2013-05-20 03:07:00,60.6,56.1,29.90,SSE,158,0.0,0.0,85,0.00,CLR,,0.00,0.0,WeatherDisplay:10.37,2013-05-20 10:07:00,
2013-05-20 03:12:00,60.5,56.0,29.90,SSE,158,0.0,0.0,85,0.00,CLR,,0.00,0.0,WeatherDisplay:10.37,2013-05-20 10:12:00,
2013-05-20 03:17:00,60.4,56.2,29.90,SSE,158,0.0,0.0,86,0.00,CLR,,0.00,0.0,WeatherDisplay:10.37,2013-05-20 10:17:00,
2013-05-20 03:22:00,60.3,56.1,29.90,SSE,158,0.0,0.0,86,0.00,CLR,,0.00,0.0,WeatherDisplay:10.37,2013-05-20 10:22:00,
2013-05-20 03:27:00,60.3,56.1,29.91,SSE,158,0.0,0.0,86,0.00,CLR,,0.00,0.0,WeatherDisplay:10.37,2013-05-20 10:27:00,
2013-05-20 03:32:00,60.4,56.2,29.91,SSE,158,0.0,0.0,86,0.00,CLR,,0.00,0.0,WeatherDisplay:10.37,2013-05-20 10:32:00,
2013-05-20 03:37:00,60.2,56.0,29.91,SSE,158,0.0,0.0,86,0.00,CLR,,0.00,0.0,WeatherDisplay:10.37,2013-05-20 10:37:00,
2013-05-20 03:42:00,60.1,55.9,29.91,SSE,158,0.0,0.0,86,0.00,CLR,,0.00,0.0,WeatherDisplay:10.37,2013-05-20 10:42:00,
2013-05-20 03:47:00,60.2,56.3,29.91,SSE,158,0.0,0.0,87,0.00,CLR,,0.00,0.0,WeatherDisplay:10.37,2013-05-20 10:47:00,
2013-05-20 03:52:00,60.6,57.0,29.91,SSE,158,1.1,1.1,88,0.00,CLR,,0.00,0.0,WeatherDisplay:10.37,2013-05-20 10:52:00,
2013-05-20 03:57:00,60.8,57.2,29.91,SSE,158,0.0,0.0,88,0.00,CLR,,0.00,0.0,WeatherDisplay:10.37,2013-05-20 10:57:00,
2013-05-20 04:02:00,60.9,57.3,29.90,SSE,158,1.1,1.1,88,0.00,CLR,,0.00,0.0,WeatherDisplay:10.37,2013-05-20 11:02:00,
2013-05-20 04:07:00,60.9,57.3,29.91,SSE,158,1.1,0.0,88,0.00,CLR,,0.00,0.0,WeatherDisplay:10.37,2013-05-20 11:07:00,
2013-05-20 04:12:00,60.8,56.9,29.91,SSE,158,1.0,1.0,87,0.00,CLR,,0.00,0.0,WeatherDisplay:10.37,2013-05-20 11:12:00,
2013-05-20 04:17:00,60.5,56.6,29.91,SSE,158,0.0,0.0,87,0.00,CLR,,0.00,0.0,WeatherDisplay:10.37,2013-05-20 11:17:00,
2013-05-20 04:22:00,60.2,56.0,29.91,SSE,158,0.0,0.0,86,0.00,CLR,,0.00,0.0,WeatherDisplay:10.37,2013-05-20 11:22:00,
2013-05-20 04:27:00,59.9,56.0,29.91,SSE,158,0.0,0.0,87,0.00,CLR,,0.00,0.0,WeatherDisplay:10.37,2013-05-20 11:27:00,
2013-05-20 04:32:00,59.7,55.8,29.91,SSE,158,1.1,1.1,87,0.00,CLR,,0.00,0.0,WeatherDisplay:10.37,2013-05-20 11:32:00,
2013-05-20 04:37:00,59.7,55.8,29.91,SSE,158,0.0,0.0,87,0.00,CLR,,0.00,0.0,WeatherDisplay:10.37,2013-05-20 11:37:00,
2013-05-20 04:42:00,59.5,55.6,29.91,SSE,158,1.0,0.0,87,0.00,CLR,,0.00,0.0,WeatherDisplay:10.37,2013-05-20 11:42:00,
2013-05-20 04:47:00,59.3,55.4,29.91,SSE,158,1.1,1.1,87,0.00,CLR,,0.00,0.0,WeatherDisplay:10.37,2013-05-20 11:47:00,
2013-05-20 04:52:00,59.0,55.1,29.91,SSE,158,1.1,1.1,87,0.00,CLR,,0.00,0.0,WeatherDisplay:10.37,2013-05-20 11:52:00,
2013-05-20 04:57:00,58.9,55.0,29.91,SSE,158,0.0,0.0,87,0.00,CLR,,0.00,0.0,WeatherDisplay:10.37,2013-05-20 11:57:00,
2013-05-20 05:02:00,58.8,55.3,29.91,SSE,158,0.0,0.0,88,0.00,CLR,,0.00,0.0,WeatherDisplay:10.37,2013-05-20 12:02:00,
2013-05-20 05:07:00,58.6,55.1,29.92,SSE,158,0.0,0.0,88,0.00,CLR,,0.00,0.0,WeatherDisplay:10.37,2013-05-20 12:07:00,
2013-05-20 05:12:00,58.6,55.1,29.92,SSE,158,0.0,0.0,88,0.00,CLR,,0.00,0.0,WeatherDisplay:10.37,2013-05-20 12:12:00,
2013-05-20 05:17:00,58.5,55.0,29.92,SSE,158,1.1,1.1,88,0.00,CLR,,0.00,0.0,WeatherDisplay:10.37,2013-05-20 12:17:00,
2013-05-20 05:22:00,58.4,54.9,29.91,SSE,158,0.0,0.0,88,0.00,CLR,,0.00,0.0,WeatherDisplay:10.37,2013-05-20 12:22:00,
2013-05-20 05:27:00,58.3,54.8,29.92,SSE,158,1.1,1.1,88,0.00,CLR,,0.00,0.0,WeatherDisplay:10.37,2013-05-20 12:27:00,
2013-05-20 05:32:00,58.3,54.8,29.92,SSE,158,1.1,1.1,88,0.00,CLR,,0.00,0.0,WeatherDisplay:10.37,2013-05-20 12:32:00,
2013-05-20 05:37:00,58.3,54.8,29.92,SSE,158,0.0,0.0,88,0.00,CLR,,0.00,0.0,WeatherDisplay:10.37,2013-05-20 12:37:00,
2013-05-20 05:42:00,58.2,54.7,29.92,SSE,158,0.0,0.0,88,0.00,CLR,,0.00,0.0,WeatherDisplay:10.37,2013-05-20 12:42:00,
2013-05-20 05:47:00,58.2,54.7,29.92,SSE,158,1.0,0.0,88,0.00,CLR,,0.00,0.0,WeatherDisplay:10.37,2013-05-20 12:47:00,
2013-05-20 05:52:00,58.2,55.0,29.92,SSE,158,1.1,1.1,89,0.00,BKN,,0.00,5.0,WeatherDisplay:10.37,2013-05-20 12:52:00,
2013-05-20 05:57:00,58.2,55.0,29.92,SSE,158,1.1,1.1,89,0.00,BKN,,0.00,9.0,WeatherDisplay:10.37,2013-05-20 12:57:00,
2013-05-20 06:02:00,58.2,54.7,29.92,SSE,158,1.1,0.0,88,0.00,BKN,,0.00,12.0,WeatherDisplay:10.37,2013-05-20 13:02:00,
2013-05-20 06:07:00,58.4,55.2,29.93,SSE,158,1.1,1.1,89,0.00,BKN,,0.00,19.0,WeatherDisplay:10.37,2013-05-20 13:07:00,
2013-05-20 06:12:00,58.5,55.3,29.93,SSE,158,1.1,0.0,89,0.00,BKN,,0.00,23.0,WeatherDisplay:10.37,2013-05-20 13:12:00,
2013-05-20 06:17:00,58.7,55.5,29.93,SSE,158,0.0,0.0,89,0.00,BKN,,0.00,28.0,WeatherDisplay:10.37,2013-05-20 13:17:00,
2013-05-20 06:22:00,58.9,55.7,29.93,SSE,158,0.0,0.0,89,0.00,BKN,,0.00,40.0,WeatherDisplay:10.37,2013-05-20 13:22:00,
2013-05-20 06:27:00,59.1,55.5,29.93,SSE,158,0.0,0.0,88,0.00,BKN,,0.00,44.0,WeatherDisplay:10.37,2013-05-20 13:27:00,
2013-05-20 06:32:00,59.3,55.7,29.93,SSE,158,0.0,0.0,88,0.00,SCT,,0.00,62.0,WeatherDisplay:10.37,2013-05-20 13:32:00,
2013-05-20 06:37:00,59.7,56.1,29.93,SSE,158,1.1,0.0,88,0.00,SCT,,0.00,70.0,WeatherDisplay:10.37,2013-05-20 13:37:00,
2013-05-20 06:42:00,60.1,56.5,29.93,SSE,158,1.1,0.0,88,0.00,SCT,,0.00,83.0,WeatherDisplay:10.37,2013-05-20 13:42:00,
2013-05-20 06:47:00,60.6,57.0,29.94,SSE,158,0.0,0.0,88,0.00,SCT,,0.00,97.0,WeatherDisplay:10.37,2013-05-20 13:47:00,
2013-05-20 06:52:00,61.2,57.3,29.93,SSE,158,0.0,0.0,87,0.00,SCT,,0.00,111.0,WeatherDisplay:10.37,2013-05-20 13:52:00,
2013-05-20 06:57:00,61.8,57.6,29.93,SSE,158,0.0,0.0,86,0.00,SCT,,0.00,132.0,WeatherDisplay:10.37,2013-05-20 13:57:00,
2013-05-20 07:02:00,62.3,57.7,29.93,SSE,158,3.5,3.5,85,0.00,FEW,,0.00,149.0,WeatherDisplay:10.37,2013-05-20 14:02:00,
2013-05-20 07:07:00,62.4,57.8,29.94,South,173,2.3,0.0,85,0.00,FEW,,0.00,165.0,WeatherDisplay:10.37,2013-05-20 14:07:00,
2013-05-20 07:12:00,62.5,57.9,29.94,South,173,3.0,3.0,85,0.00,FEW,,0.00,190.0,WeatherDisplay:10.37,2013-05-20 14:12:00,
2013-05-20 07:17:00,62.6,58.0,29.94,South,183,3.5,3.5,85,0.00,FEW,,0.00,207.0,WeatherDisplay:10.37,2013-05-20 14:17:00,
2013-05-20 07:22:00,62.7,58.1,29.94,South,182,3.5,3.5,85,0.00,CLR,,0.00,229.0,WeatherDisplay:10.37,2013-05-20 14:22:00,
2013-05-20 07:28:00,63.0,58.4,29.94,SSW,203,3.5,3.5,85,0.00,CLR,,0.00,255.0,WeatherDisplay:10.37,2013-05-20 14:28:00,
2013-05-20 07:33:00,63.3,58.4,29.94,South,188,2.3,2.3,84,0.00,CLR,,0.00,285.0,WeatherDisplay:10.37,2013-05-20 14:33:00,
2013-05-20 07:38:00,63.4,58.5,29.94,South,190,3.5,3.5,84,0.00,CLR,,0.00,255.0,WeatherDisplay:10.37,2013-05-20 14:38:00,
2013-05-20 07:43:00,63.5,58.6,29.94,SSW,192,3.0,3.0,84,0.00,CLR,,0.00,309.0,WeatherDisplay:10.37,2013-05-20 14:43:00,
2013-05-20 07:48:00,63.5,58.2,29.94,SSE,161,3.5,3.5,83,0.00,CLR,,0.00,316.0,WeatherDisplay:10.37,2013-05-20 14:48:00,
2013-05-20 07:53:00,63.7,58.4,29.94,South,172,3.5,3.5,83,0.00,CLR,,0.00,345.0,WeatherDisplay:10.37,2013-05-20 14:53:00,
2013-05-20 07:58:00,64.0,58.4,29.94,SSW,198,0.0,0.0,82,0.00,CLR,,0.00,353.0,WeatherDisplay:10.37,2013-05-20 14:58:00,
2013-05-20 08:03:00,64.3,58.3,29.94,SW,220,3.5,3.5,81,0.00,CLR,,0.00,369.0,WeatherDisplay:10.37,2013-05-20 15:03:00,
2013-05-20 08:08:00,64.4,58.4,29.94,SSE,157,3.5,3.5,81,0.00,CLR,,0.00,383.0,WeatherDisplay:10.37,2013-05-20 15:08:00,
2013-05-20 08:13:00,64.4,58.1,29.94,SSE,148,4.6,4.6,80,0.00,SCT,,0.00,176.0,WeatherDisplay:10.37,2013-05-20 15:13:00,
2013-05-20 08:18:00,64.6,58.6,29.94,SSE,160,2.3,2.3,81,0.00,CLR,,0.00,425.0,WeatherDisplay:10.37,2013-05-20 15:18:00,
2013-05-20 08:23:00,64.9,58.6,29.95,South,191,4.0,4.0,80,0.00,SCT,,0.00,213.0,WeatherDisplay:10.37,2013-05-20 15:23:00,
2013-05-20 08:28:00,64.8,58.5,29.95,South,189,2.3,2.3,80,0.00,CLR,,0.00,471.0,WeatherDisplay:10.37,2013-05-20 15:28:00,
2013-05-20 08:33:00,65.1,58.4,29.95,WSW,242,3.5,3.5,79,0.00,CLR,,0.00,469.0,WeatherDisplay:10.37,2013-05-20 15:33:00,
2013-05-20 08:38:00,65.3,58.6,29.95,SSW,195,4.6,4.6,79,0.00,CLR,,0.00,473.0,WeatherDisplay:10.37,2013-05-20 15:38:00,
2013-05-20 08:43:00,65.6,58.6,29.95,SSW,205,3.5,3.5,78,0.00,CLR,,0.00,489.0,WeatherDisplay:10.37,2013-05-20 15:43:00,
2013-05-20 08:48:00,66.0,58.9,29.95,SE,132,3.5,3.5,78,0.00,CLR,,0.00,506.0,WeatherDisplay:10.37,2013-05-20 15:48:00,
2013-05-20 08:53:00,66.2,58.8,29.94,SW,218,2.0,2.0,77,0.00,CLR,,0.00,519.0,WeatherDisplay:10.37,2013-05-20 15:53:00,
2013-05-20 08:58:00,66.7,59.3,29.94,SE,129,2.3,2.3,77,0.00,CLR,,0.00,540.0,WeatherDisplay:10.37,2013-05-20 15:58:00,
2013-05-20 09:03:00,67.4,59.2,29.94,South,171,3.0,3.0,75,0.00,CLR,,0.00,548.0,WeatherDisplay:10.37,2013-05-20 16:03:00,
2013-05-20 09:08:00,67.3,58.7,29.94,West,279,2.0,2.0,74,0.00,CLR,,0.00,564.0,WeatherDisplay:10.37,2013-05-20 16:08:00,
2013-05-20 09:13:00,67.4,58.8,29.94,SSE,165,6.0,6.0,74,0.00,CLR,,0.00,580.0,WeatherDisplay:10.37,2013-05-20 16:13:00,
2013-05-20 09:18:00,67.6,59.0,29.94,SSW,213,4.6,4.6,74,0.00,CLR,,0.00,592.0,WeatherDisplay:10.37,2013-05-20 16:18:00,
2013-05-20 09:23:00,67.8,59.2,29.94,West,262,4.6,4.6,74,0.00,CLR,,0.00,613.0,WeatherDisplay:10.37,2013-05-20 16:23:00,
2013-05-20 09:28:00,67.9,58.9,29.94,West,263,3.5,3.5,73,0.00,CLR,,0.00,622.0,WeatherDisplay:10.37,2013-05-20 16:28:00,
2013-05-20 09:33:00,68.1,59.1,29.94,West,266,2.3,2.3,73,0.00,CLR,,0.00,638.0,WeatherDisplay:10.37,2013-05-20 16:33:00,
2013-05-20 09:38:00,68.5,59.1,29.94,South,180,3.5,3.5,72,0.00,CLR,,0.00,656.0,WeatherDisplay:10.37,2013-05-20 16:38:00,
2013-05-20 09:43:00,68.9,59.5,29.94,SW,229,3.0,3.0,72,0.00,CLR,,0.00,670.0,WeatherDisplay:10.37,2013-05-20 16:43:00,
2013-05-20 09:48:00,69.0,59.2,29.94,West,274,4.0,4.0,71,0.00,CLR,,0.00,687.0,WeatherDisplay:10.37,2013-05-20 16:48:00,
2013-05-20 09:53:00,69.3,59.9,29.94,SSW,194,3.5,3.5,72,0.00,CLR,,0.00,700.0,WeatherDisplay:10.37,2013-05-20 16:53:00,
2013-05-20 09:58:00,70.2,59.6,29.93,West,265,6.0,6.0,69,0.00,CLR,,0.00,710.0,WeatherDisplay:10.37,2013-05-20 16:58:00,
2013-05-20 10:03:00,70.3,59.2,29.93,West,262,5.8,5.8,68,0.00,CLR,,0.00,722.0,WeatherDisplay:10.37,2013-05-20 17:03:00,
2013-05-20 10:08:00,70.2,59.6,29.93,WNW,286,3.5,3.5,69,0.00,FEW,,0.00,728.0,WeatherDisplay:10.37,2013-05-20 17:08:00,
2013-05-20 10:13:00,70.6,59.5,29.93,South,179,3.5,3.5,68,0.00,FEW,,0.00,735.0,WeatherDisplay:10.37,2013-05-20 17:13:00,
2013-05-20 10:18:00,71.1,60.0,29.93,SSE,155,3.5,3.5,68,0.00,FEW,,0.00,752.0,WeatherDisplay:10.37,2013-05-20 17:18:00,
2013-05-20 10:23:00,71.4,59.9,29.94,SSW,193,4.0,4.0,67,0.00,FEW,,0.00,766.0,WeatherDisplay:10.37,2013-05-20 17:23:00,
2013-05-20 10:28:00,71.9,59.9,29.94,SW,222,4.6,4.6,66,0.00,FEW,,0.00,777.0,WeatherDisplay:10.37,2013-05-20 17:28:00,
2013-05-20 10:33:00,72.1,59.7,29.93,SE,138,3.5,3.5,65,0.00,FEW,,0.00,772.0,WeatherDisplay:10.37,2013-05-20 17:33:00,
2013-05-20 10:38:00,72.6,59.7,29.94,SW,219,5.8,5.8,64,0.00,FEW,,0.00,795.0,WeatherDisplay:10.37,2013-05-20 17:38:00,
2013-05-20 10:43:00,72.8,59.9,29.94,SSW,197,4.6,4.6,64,0.00,FEW,,0.00,812.0,WeatherDisplay:10.37,2013-05-20 17:43:00,
2013-05-20 10:48:00,73.0,60.1,29.94,SW,224,5.8,5.8,64,0.00,FEW,,0.00,819.0,WeatherDisplay:10.37,2013-05-20 17:48:00,
2013-05-20 10:53:00,73.4,59.6,29.93,WNW,286,4.6,4.6,62,0.00,FEW,,0.00,823.0,WeatherDisplay:10.37,2013-05-20 17:53:00,
2013-05-20 10:58:00,73.6,60.2,29.93,SSE,149,6.0,6.0,63,0.00,FEW,,0.00,833.0,WeatherDisplay:10.37,2013-05-20 17:58:00,
2013-05-20 11:03:00,74.0,60.2,29.93,SE,139,4.6,4.6,62,0.00,FEW,,0.00,844.0,WeatherDisplay:10.37,2013-05-20 18:03:00,
2013-05-20 11:08:00,74.0,60.2,29.93,SW,233,6.0,6.0,62,0.00,FEW,,0.00,847.0,WeatherDisplay:10.37,2013-05-20 18:08:00,
2013-05-20 11:13:00,74.5,60.2,29.93,West,262,3.5,3.5,61,0.00,FEW,,0.00,856.0,WeatherDisplay:10.37,2013-05-20 18:13:00,
2013-05-20 11:18:00,74.8,60.0,29.93,West,262,6.9,6.9,60,0.00,FEW,,0.00,865.0,WeatherDisplay:10.37,2013-05-20 18:18:00,
2013-05-20 11:23:00,75.1,59.8,29.93,SSW,207,1.1,1.1,59,0.00,FEW,,0.00,868.0,WeatherDisplay:10.37,2013-05-20 18:23:00,
2013-05-20 11:28:00,75.5,60.6,29.93,West,275,6.0,6.0,60,0.00,FEW,,0.00,875.0,WeatherDisplay:10.37,2013-05-20 18:28:00,
2013-05-20 11:33:00,76.1,61.2,29.93,SSW,207,7.0,7.0,60,0.00,FEW,,0.00,886.0,WeatherDisplay:10.37,2013-05-20 18:33:00,
2013-05-20 11:38:00,76.0,61.1,29.93,SSW,211,6.9,6.9,60,0.00,FEW,,0.00,886.0,WeatherDisplay:10.37,2013-05-20 18:38:00,
2013-05-20 11:43:00,75.6,61.2,29.93,South,182,10.0,10.0,61,0.00,FEW,,0.00,891.0,WeatherDisplay:10.37,2013-05-20 18:43:00,
2013-05-20 11:48:00,75.5,61.1,29.93,SSW,195,7.0,7.0,61,0.00,FEW,,0.00,896.0,WeatherDisplay:10.37,2013-05-20 18:48:00,
2013-05-20 11:53:00,75.8,60.9,29.93,SSW,203,8.1,8.1,60,0.00,FEW,,0.00,898.0,WeatherDisplay:10.37,2013-05-20 18:53:00,
2013-05-20 11:58:00,76.0,61.1,29.93,South,183,8.1,8.1,60,0.00,FEW,,0.00,905.0,WeatherDisplay:10.37,2013-05-20 18:58:00,
2013-05-20 12:03:00,76.4,61.0,29.93,SSE,152,11.0,11.0,59,0.00,FEW,,0.00,909.0,WeatherDisplay:10.37,2013-05-20 19:03:00,
2013-05-20 12:08:00,76.8,61.4,29.92,SW,217,7.0,7.0,59,0.00,FEW,,0.00,914.0,WeatherDisplay:10.37,2013-05-20 19:08:00,
2013-05-20 12:13:00,77.2,60.8,29.92,SW,214,6.9,6.9,57,0.00,FEW,,0.00,914.0,WeatherDisplay:10.37,2013-05-20 19:13:00,
2013-05-20 12:18:00,77.1,60.7,29.92,South,191,6.9,6.9,57,0.00,FEW,,0.00,918.0,WeatherDisplay:10.37,2013-05-20 19:18:00,
2013-05-20 12:23:00,77.4,61.0,29.92,SW,234,5.8,5.8,57,0.00,FEW,,0.00,919.0,WeatherDisplay:10.37,2013-05-20 19:23:00,
2013-05-20 12:28:00,78.1,61.1,29.92,SSW,206,8.1,8.1,56,0.00,FEW,,0.00,923.0,WeatherDisplay:10.37,2013-05-20 19:28:00,
2013-05-20 12:33:00,78.3,61.3,29.92,SW,214,7.0,7.0,56,0.00,FEW,,0.00,926.0,WeatherDisplay:10.37,2013-05-20 19:33:00,
2013-05-20 12:38:00,78.2,61.2,29.92,SSW,209,8.1,8.1,56,0.00,FEW,,0.00,919.0,WeatherDisplay:10.37,2013-05-20 19:38:00,
2013-05-20 12:43:00,78.7,60.7,29.91,WSW,238,5.8,5.8,54,0.00,FEW,,0.00,928.0,WeatherDisplay:10.37,2013-05-20 19:43:00,
2013-05-20 12:48:00,78.6,60.6,29.91,SW,216,6.9,6.9,54,0.00,FEW,,0.00,926.0,WeatherDisplay:10.37,2013-05-20 19:48:00,
2013-05-20 12:53:00,78.8,60.7,29.91,South,180,6.9,6.9,54,0.00,FEW,,0.00,925.0,WeatherDisplay:10.37,2013-05-20 19:53:00,
2013-05-20 12:58:00,79.0,60.9,29.91,SSE,153,6.9,6.9,54,0.00,FEW,,0.00,923.0,WeatherDisplay:10.37,2013-05-20 19:58:00,
2013-05-20 13:03:00,79.5,60.9,29.91,WSW,251,8.1,8.1,53,0.00,FEW,,0.00,923.0,WeatherDisplay:10.37,2013-05-20 20:03:00,
2013-05-20 13:08:00,79.7,60.5,29.91,SSE,167,5.8,5.8,52,0.00,FEW,,0.00,921.0,WeatherDisplay:10.37,2013-05-20 20:08:00,
2013-05-20 13:13:00,79.9,60.7,29.91,SSW,199,6.0,6.0,52,0.00,FEW,,0.00,919.0,WeatherDisplay:10.37,2013-05-20 20:13:00,
2013-05-20 13:18:00,80.3,60.5,29.91,SSW,194,10.4,10.4,51,0.00,FEW,,0.00,918.0,WeatherDisplay:10.37,2013-05-20 20:18:00,
2013-05-20 13:23:00,80.7,60.3,29.91,South,174,6.0,6.0,50,0.00,FEW,,0.00,916.0,WeatherDisplay:10.37,2013-05-20 20:23:00,
2013-05-20 13:28:00,81.2,60.8,29.91,West,277,7.0,7.0,50,0.00,FEW,,0.00,914.0,WeatherDisplay:10.37,2013-05-20 20:28:00,
2013-05-20 13:33:00,81.2,60.2,29.90,WNW,292,5.8,5.8,49,0.00,FEW,,0.00,907.0,WeatherDisplay:10.37,2013-05-20 20:33:00,
2013-05-20 13:38:00,81.1,60.7,29.90,SSW,202,9.2,9.2,50,0.00,FEW,,0.00,904.0,WeatherDisplay:10.37,2013-05-20 20:38:00,
2013-05-20 13:43:00,82.0,60.4,29.90,SSW,197,7.0,7.0,48,0.00,FEW,,0.00,900.0,WeatherDisplay:10.37,2013-05-20 20:43:00,
2013-05-20 13:48:00,82.4,60.7,29.90,SW,217,8.1,8.1,48,0.00,FEW,,0.00,895.0,WeatherDisplay:10.37,2013-05-20 20:48:00,
2013-05-20 13:53:00,82.4,60.7,29.90,SW,219,5.8,5.8,48,0.00,SCT,,0.00,606.0,WeatherDisplay:10.37,2013-05-20 20:53:00,
2013-05-20 13:58:00,82.5,60.8,29.89,SSE,162,7.0,7.0,48,0.00,FEW,,0.00,875.0,WeatherDisplay:10.37,2013-05-20 20:58:00,
2013-05-20 14:03:00,82.7,60.4,29.90,SSW,204,8.1,8.1,47,0.00,FEW,,0.00,875.0,WeatherDisplay:10.37,2013-05-20 21:03:00,
2013-05-20 14:08:00,82.3,61.2,29.89,SSE,161,10.4,10.4,49,0.00,FEW,,0.00,872.0,WeatherDisplay:10.37,2013-05-20 21:08:00,
2013-05-20 14:13:00,81.6,61.2,29.90,South,174,11.5,11.5,50,0.00,FEW,,0.00,865.0,WeatherDisplay:10.37,2013-05-20 21:13:00,
2013-05-20 14:18:00,81.3,61.4,29.90,South,190,9.2,9.2,51,0.00,FEW,,0.00,861.0,WeatherDisplay:10.37,2013-05-20 21:18:00,
2013-05-20 14:23:00,81.8,61.3,29.90,South,188,11.5,11.5,50,0.00,FEW,,0.00,865.0,WeatherDisplay:10.37,2013-05-20 21:23:00,
2013-05-20 14:28:00,82.0,61.5,29.90,SSW,213,10.4,10.4,50,0.00,FEW,,0.00,851.0,WeatherDisplay:10.37,2013-05-20 21:28:00,
2013-05-20 14:33:00,81.3,61.4,29.90,SW,218,13.0,13.0,51,0.00,FEW,,0.00,833.0,WeatherDisplay:10.37,2013-05-20 21:33:00,
2013-05-20 14:38:00,81.6,61.7,29.90,SSW,200,7.0,7.0,51,0.00,FEW,,0.00,821.0,WeatherDisplay:10.37,2013-05-20 21:38:00,
2013-05-20 14:43:00,81.2,61.4,29.89,South,180,10.0,10.0,51,0.00,FEW,,0.00,812.0,WeatherDisplay:10.37,2013-05-20 21:43:00,
2013-05-20 14:48:00,81.4,61.5,29.89,SW,217,8.1,8.1,51,0.00,FEW,,0.00,803.0,WeatherDisplay:10.37,2013-05-20 21:48:00,
2013-05-20 14:53:00,81.1,61.3,29.90,SSW,202,9.2,9.2,51,0.00,FEW,,0.00,793.0,WeatherDisplay:10.37,2013-05-20 21:53:00,
2013-05-20 14:58:00,81.2,61.9,29.89,SSW,198,7.0,7.0,52,0.00,FEW,,0.00,784.0,WeatherDisplay:10.37,2013-05-20 21:58:00,
2013-05-20 15:03:00,81.5,61.6,29.90,SW,224,11.5,11.5,51,0.00,FEW,,0.00,775.0,WeatherDisplay:10.37,2013-05-20 22:03:00,
2013-05-20 15:08:00,81.4,61.5,29.90,South,170,9.2,9.2,51,0.00,FEW,,0.00,761.0,WeatherDisplay:10.37,2013-05-20 22:08:00,
2013-05-20 15:13:00,80.8,61.5,29.89,SSW,209,8.1,8.1,52,0.00,FEW,,0.00,754.0,WeatherDisplay:10.37,2013-05-20 22:13:00,
2013-05-20 15:18:00,80.6,61.3,29.89,SSW,192,9.2,9.2,52,0.00,FEW,,0.00,742.0,WeatherDisplay:10.37,2013-05-20 22:18:00,
2013-05-20 15:23:00,80.8,61.5,29.89,South,176,8.1,8.1,52,0.00,FEW,,0.00,729.0,WeatherDisplay:10.37,2013-05-20 22:23:00,
2013-05-20 15:28:00,80.6,61.3,29.89,SSE,165,12.7,12.7,52,0.00,FEW,,0.00,724.0,WeatherDisplay:10.37,2013-05-20 22:28:00,
2013-05-20 15:33:00,81.1,61.8,29.88,SSW,203,8.1,8.1,52,0.00,FEW,,0.00,708.0,WeatherDisplay:10.37,2013-05-20 22:33:00,
2013-05-20 15:38:00,81.1,61.8,29.88,SSW,209,8.1,8.1,52,0.00,FEW,,0.00,696.0,WeatherDisplay:10.37,2013-05-20 22:38:00,
2013-05-20 15:43:00,81.2,61.9,29.88,SW,234,9.2,9.2,52,0.00,FEW,,0.00,682.0,WeatherDisplay:10.37,2013-05-20 22:43:00,
2013-05-20 15:48:00,81.6,61.7,29.88,SSE,147,6.9,6.9,51,0.00,FEW,,0.00,671.0,WeatherDisplay:10.37,2013-05-20 22:48:00,
2013-05-20 15:53:00,81.8,61.9,29.87,SSE,157,8.1,8.1,51,0.00,CLR,,0.00,657.0,WeatherDisplay:10.37,2013-05-20 22:53:00,
2013-05-20 15:58:00,81.2,61.9,29.87,West,275,9.2,9.2,52,0.00,CLR,,0.00,649.0,WeatherDisplay:10.37,2013-05-20 22:58:00,
2013-05-20 16:03:00,81.3,62.0,29.87,SE,144,9.0,9.0,52,0.00,CLR,,0.00,629.0,WeatherDisplay:10.37,2013-05-20 23:03:00,
2013-05-20 16:08:00,81.4,61.5,29.87,SW,225,9.2,9.2,51,0.00,CLR,,0.00,617.0,WeatherDisplay:10.37,2013-05-20 23:08:00,
2013-05-20 16:13:00,81.6,61.7,29.87,SSE,168,9.2,9.2,51,0.00,CLR,,0.00,608.0,WeatherDisplay:10.37,2013-05-20 23:13:00,
2013-05-20 16:18:00,81.2,61.9,29.87,SSE,161,11.5,11.5,52,0.00,CLR,,0.00,592.0,WeatherDisplay:10.37,2013-05-20 23:18:00,
2013-05-20 16:23:00,81.2,61.9,29.87,SSW,206,9.2,9.2,52,0.00,CLR,,0.00,573.0,WeatherDisplay:10.37,2013-05-20 23:23:00,
2013-05-20 16:28:00,81.1,61.8,29.87,South,184,10.4,10.4,52,0.00,CLR,,0.00,561.0,WeatherDisplay:10.37,2013-05-20 23:28:00,
2013-05-20 16:33:00,81.1,61.8,29.87,SSW,198,7.0,7.0,52,0.00,CLR,,0.00,547.0,WeatherDisplay:10.37,2013-05-20 23:33:00,
2013-05-20 16:38:00,81.0,61.7,29.87,WSW,255,6.9,6.9,52,0.00,CLR,,0.00,531.0,WeatherDisplay:10.37,2013-05-20 23:38:00,
2013-05-20 16:43:00,81.2,61.9,29.87,SSE,159,8.1,8.1,52,0.00,CLR,,0.00,517.0,WeatherDisplay:10.37,2013-05-20 23:43:00,
2013-05-20 16:48:00,80.6,61.9,29.87,SSE,150,9.0,9.0,53,0.00,CLR,,0.00,504.0,WeatherDisplay:10.37,2013-05-20 23:48:00,
2013-05-20 16:53:00,81.0,61.7,29.87,SSE,161,8.1,8.1,52,0.00,CLR,,0.00,487.0,WeatherDisplay:10.37,2013-05-20 23:53:00,
2013-05-20 16:58:00,80.8,61.0,29.87,SSW,200,7.0,7.0,51,0.00,CLR,,0.00,475.0,WeatherDisplay:10.37,2013-05-20 23:58:00,
2013-05-20 17:03:00,81.1,61.8,29.86,South,188,4.0,4.0,52,0.00,CLR,,0.00,462.0,WeatherDisplay:10.37,2013-05-21 00:03:00,
2013-05-20 17:08:00,81.0,61.7,29.86,SSE,148,9.2,9.2,52,0.00,CLR,,0.00,443.0,WeatherDisplay:10.37,2013-05-21 00:08:00,
2013-05-20 17:13:00,80.8,60.4,29.86,SSW,211,6.9,6.9,50,0.00,CLR,,0.00,427.0,WeatherDisplay:10.37,2013-05-21 00:13:00,
2013-05-20 17:18:00,80.6,61.3,29.86,SE,144,9.2,9.2,52,0.00,CLR,,0.00,411.0,WeatherDisplay:10.37,2013-05-21 00:18:00,
2013-05-20 17:23:00,80.2,61.5,29.86,South,182,9.0,9.0,53,0.00,CLR,,0.00,396.0,WeatherDisplay:10.37,2013-05-21 00:23:00,
2013-05-20 17:28:00,79.4,60.8,29.86,SSE,168,9.2,9.2,53,0.00,CLR,,0.00,378.0,WeatherDisplay:10.37,2013-05-21 00:28:00,
2013-05-20 17:33:00,78.7,61.2,29.86,SSE,148,9.2,9.2,55,0.00,CLR,,0.00,364.0,WeatherDisplay:10.37,2013-05-21 00:33:00,
2013-05-20 17:38:00,78.4,61.4,29.86,South,176,9.2,9.2,56,0.00,CLR,,0.00,345.0,WeatherDisplay:10.37,2013-05-21 00:38:00,
2013-05-20 17:43:00,77.8,60.8,29.86,South,175,9.2,9.2,56,0.00,CLR,,0.00,329.0,WeatherDisplay:10.37,2013-05-21 00:43:00,
2013-05-20 17:48:00,77.1,60.7,29.86,SE,143,11.5,11.5,57,0.00,CLR,,0.00,313.0,WeatherDisplay:10.37,2013-05-21 00:48:00,
2013-05-20 17:53:00,76.7,60.8,29.86,SE,145,9.2,9.2,58,0.00,CLR,,0.00,299.0,WeatherDisplay:10.37,2013-05-21 00:53:00,
2013-05-20 17:58:00,75.9,61.0,29.86,SE,143,10.4,10.4,60,0.00,CLR,,0.00,279.0,WeatherDisplay:10.37,2013-05-21 00:58:00,
2013-05-20 18:03:00,75.2,60.8,29.87,SSE,151,10.0,10.0,61,0.00,CLR,,0.00,265.0,WeatherDisplay:10.37,2013-05-21 01:03:00,
2013-05-20 18:08:00,74.5,61.1,29.87,South,180,11.5,11.5,63,0.00,CLR,,0.00,250.0,WeatherDisplay:10.37,2013-05-21 01:08:00,
2013-05-20 18:13:00,74.3,61.3,29.86,SSE,147,9.0,9.0,64,0.00,CLR,,0.00,232.0,WeatherDisplay:10.37,2013-05-21 01:13:00,
2013-05-20 18:18:00,73.8,61.3,29.86,SSE,152,12.7,12.7,65,0.00,CLR,,0.00,214.0,WeatherDisplay:10.37,2013-05-21 01:18:00,
2013-05-20 18:23:00,73.5,61.4,29.86,SSE,153,8.1,8.1,66,0.00,CLR,,0.00,199.0,WeatherDisplay:10.37,2013-05-21 01:23:00,
2013-05-20 18:28:00,73.3,61.7,29.86,SSE,148,9.0,9.0,67,0.00,CLR,,0.00,181.0,WeatherDisplay:10.37,2013-05-21 01:28:00,
2013-05-20 18:33:00,72.7,61.1,29.86,ESE,121,9.2,9.2,67,0.00,CLR,,0.00,167.0,WeatherDisplay:10.37,2013-05-21 01:33:00,
2013-05-20 18:38:00,72.6,61.4,29.87,SSE,163,8.1,8.1,68,0.00,FEW,,0.00,148.0,WeatherDisplay:10.37,2013-05-21 01:38:00,
2013-05-20 18:43:00,72.5,61.3,29.87,South,184,8.1,8.1,68,0.00,FEW,,0.00,130.0,WeatherDisplay:10.37,2013-05-21 01:43:00,
2013-05-20 18:48:00,72.1,61.8,29.87,SSE,166,9.2,9.2,70,0.00,FEW,,0.00,113.0,WeatherDisplay:10.37,2013-05-21 01:48:00,
2013-05-20 18:53:00,71.9,61.6,29.87,SE,143,10.4,10.4,70,0.00,SCT,,0.00,97.0,WeatherDisplay:10.37,2013-05-21 01:53:00,
2013-05-20 18:58:00,71.6,61.3,29.86,SSE,165,9.2,9.2,70,0.00,SCT,,0.00,83.0,WeatherDisplay:10.37,2013-05-21 01:58:00,
2013-05-20 19:03:00,71.1,61.2,29.86,SSE,167,6.9,6.9,71,0.00,SCT,,0.00,67.0,WeatherDisplay:10.37,2013-05-21 02:03:00,
2013-05-20 19:08:00,70.8,61.3,29.87,South,169,8.1,8.1,72,0.00,SCT,,0.00,56.0,WeatherDisplay:10.37,2013-05-21 02:08:00,
2013-05-20 19:13:00,70.6,61.1,29.87,South,190,9.2,9.2,72,0.00,BKN,,0.00,37.0,WeatherDisplay:10.37,2013-05-21 02:13:00,
2013-05-20 19:18:00,70.1,61.4,29.87,South,180,8.0,8.0,74,0.00,BKN,,0.00,33.0,WeatherDisplay:10.37,2013-05-21 02:18:00,
2013-05-20 19:23:00,69.9,61.2,29.87,South,169,6.9,6.9,74,0.00,BKN,,0.00,28.0,WeatherDisplay:10.37,2013-05-21 02:23:00,
2013-05-20 19:28:00,69.9,61.2,29.87,SSE,157,8.1,8.1,74,0.00,BKN,,0.00,19.0,WeatherDisplay:10.37,2013-05-21 02:28:00,
2013-05-20 19:33:00,69.7,61.4,29.87,SSE,167,5.8,5.8,75,0.00,BKN,,0.00,14.0,WeatherDisplay:10.37,2013-05-21 02:33:00,
2013-05-20 19:38:00,69.5,61.2,29.87,SSW,199,7.0,7.0,75,0.00,BKN,,0.00,11.0,WeatherDisplay:10.37,2013-05-21 02:38:00,
2013-05-20 19:43:00,69.1,61.2,29.88,SSE,157,6.9,6.9,76,0.00,SCT,,0.00,7.0,WeatherDisplay:10.37,2013-05-21 02:43:00,
2013-05-20 19:48:00,68.9,61.0,29.88,SSE,163,8.1,8.1,76,0.00,CLR,,0.00,0.0,WeatherDisplay:10.37,2013-05-21 02:48:00,
2013-05-20 19:53:00,68.7,61.2,29.88,South,171,8.1,8.1,77,0.00,CLR,,0.00,0.0,WeatherDisplay:10.37,2013-05-21 02:53:00,
2013-05-20 19:58:00,68.5,61.0,29.88,SSE,158,6.9,6.9,77,0.00,CLR,,0.00,0.0,WeatherDisplay:10.37,2013-05-21 02:58:00,
2013-05-20 20:03:00,68.3,61.2,29.89,South,173,8.1,8.1,78,0.00,CLR,,0.00,0.0,WeatherDisplay:10.37,2013-05-21 03:03:00,
2013-05-20 20:08:00,68.0,61.2,29.89,SE,140,8.1,8.1,79,0.00,CLR,,0.00,0.0,WeatherDisplay:10.37,2013-05-21 03:08:00,
2013-05-20 20:13:00,67.9,61.5,29.89,SSE,161,6.0,6.0,80,0.00,CLR,,0.00,0.0,WeatherDisplay:10.37,2013-05-21 03:13:00,
2013-05-20 20:18:00,67.6,61.2,29.89,SSE,150,6.9,6.9,80,0.00,CLR,,0.00,0.0,WeatherDisplay:10.37,2013-05-21 03:18:00,
2013-05-20 20:23:00,67.3,61.3,29.89,SSE,151,6.9,6.9,81,0.00,CLR,,0.00,0.0,WeatherDisplay:10.37,2013-05-21 03:23:00,
2013-05-20 20:28:00,67.2,61.2,29.89,South,187,6.9,6.9,81,0.00,CLR,,0.00,0.0,WeatherDisplay:10.37,2013-05-21 03:28:00,
2013-05-20 20:33:00,67.0,61.3,29.89,SE,145,7.0,7.0,82,0.00,CLR,,0.00,0.0,WeatherDisplay:10.37,2013-05-21 03:33:00,
2013-05-20 20:38:00,66.8,61.1,29.89,South,172,9.2,9.2,82,0.00,CLR,,0.00,0.0,WeatherDisplay:10.37,2013-05-21 03:38:00,
2013-05-20 20:43:00,66.6,61.3,29.90,SSE,158,6.9,6.9,83,0.00,CLR,,0.00,0.0,WeatherDisplay:10.37,2013-05-21 03:43:00,
2013-05-20 20:48:00,66.6,61.3,29.90,SSE,155,7.0,7.0,83,0.00,CLR,,0.00,0.0,WeatherDisplay:10.37,2013-05-21 03:48:00,
2013-05-20 20:53:00,66.5,61.2,29.90,South,173,8.1,8.1,83,0.00,CLR,,0.00,0.0,WeatherDisplay:10.37,2013-05-21 03:53:00,
2013-05-20 20:58:00,66.3,61.3,29.90,South,175,8.1,8.1,84,0.00,CLR,,0.00,0.0,WeatherDisplay:10.37,2013-05-21 03:58:00,
2013-05-20 21:01:00,66.2,61.2,29.90,South,179,6.9,6.9,84,0.00,CLR,,0.00,0.0,WeatherDisplay:10.37,2013-05-21 04:01:00,
2013-05-20 21:02:00,66.1,61.1,29.90,SSE,168,8.0,8.0,84,0.00,CLR,,0.00,0.0,WeatherDisplay:10.37,2013-05-21 04:02:00,
2013-05-20 21:07:00,65.9,60.9,29.89,SSE,161,7.0,7.0,84,0.00,CLR,,0.00,0.0,WeatherDisplay:10.37,2013-05-21 04:07:00,
2013-05-20 21:12:00,65.7,61.1,29.90,SSE,161,6.9,6.9,85,0.00,CLR,,0.00,0.0,WeatherDisplay:10.37,2013-05-21 04:12:00,
2013-05-20 21:17:00,65.7,61.1,29.90,SSE,147,5.8,5.8,85,0.00,CLR,,0.00,0.0,WeatherDisplay:10.37,2013-05-21 04:17:00,
2013-05-20 21:22:00,65.6,61.3,29.90,SSE,159,6.9,6.9,86,0.00,CLR,,0.00,0.0,WeatherDisplay:10.37,2013-05-21 04:22:00,
2013-05-20 21:27:00,65.5,61.2,29.90,SSE,163,4.6,4.6,86,0.00,CLR,,0.00,0.0,WeatherDisplay:10.37,2013-05-21 04:27:00,
2013-05-20 21:32:00,65.4,61.1,29.90,SSE,162,6.0,6.0,86,0.00,CLR,,0.00,0.0,WeatherDisplay:10.37,2013-05-21 04:32:00,
2013-05-20 21:37:00,65.3,61.0,29.91,SSE,151,4.6,4.6,86,0.00,CLR,,0.00,0.0,WeatherDisplay:10.37,2013-05-21 04:37:00,
2013-05-20 21:42:00,65.3,61.0,29.91,SSE,152,7.0,7.0,86,0.00,CLR,,0.00,0.0,WeatherDisplay:10.37,2013-05-21 04:42:00,
2013-05-20 21:47:00,65.2,60.9,29.91,SSE,148,7.0,7.0,86,0.00,CLR,,0.00,0.0,WeatherDisplay:10.37,2013-05-21 04:47:00,
2013-05-20 21:52:00,65.1,60.8,29.91,SSW,194,4.6,4.6,86,0.00,CLR,,0.00,0.0,WeatherDisplay:10.37,2013-05-21 04:52:00,
2013-05-20 21:57:00,65.0,60.7,29.91,SSE,155,6.9,6.9,86,0.00,CLR,,0.00,0.0,WeatherDisplay:10.37,2013-05-21 04:57:00,
2013-05-20 22:02:00,64.9,60.6,29.91,SSE,166,6.9,6.9,86,0.00,CLR,,0.00,0.0,WeatherDisplay:10.37,2013-05-21 05:02:00,
2013-05-20 22:07:00,64.9,60.6,29.91,SSW,201,4.6,4.6,86,0.00,CLR,,0.00,0.0,WeatherDisplay:10.37,2013-05-21 05:07:00,
2013-05-20 22:12:00,64.9,60.6,29.92,SSE,159,5.8,5.8,86,0.00,CLR,,0.00,0.0,WeatherDisplay:10.37,2013-05-21 05:12:00,
2013-05-20 22:17:00,64.8,60.5,29.91,SSE,155,6.9,6.9,86,0.00,CLR,,0.00,0.0,WeatherDisplay:10.37,2013-05-21 05:17:00,
2013-05-20 22:22:00,64.8,60.5,29.91,SSE,161,5.0,5.0,86,0.00,CLR,,0.00,0.0,WeatherDisplay:10.37,2013-05-21 05:22:00,
2013-05-20 22:27:00,64.7,60.4,29.91,South,182,6.9,6.9,86,0.00,CLR,,0.00,0.0,WeatherDisplay:10.37,2013-05-21 05:27:00,
2013-05-20 22:32:00,64.6,60.3,29.92,South,173,5.0,5.0,86,0.00,CLR,,0.00,0.0,WeatherDisplay:10.37,2013-05-21 05:32:00,
2013-05-20 22:37:00,64.6,60.3,29.92,SSE,163,5.0,5.0,86,0.00,CLR,,0.00,0.0,WeatherDisplay:10.37,2013-05-21 05:37:00,
2013-05-20 22:42:00,64.5,60.2,29.92,South,177,4.6,4.6,86,0.00,CLR,,0.00,0.0,WeatherDisplay:10.37,2013-05-21 05:42:00,
2013-05-20 22:47:00,64.5,60.2,29.92,SSE,163,5.8,5.8,86,0.00,CLR,,0.00,0.0,WeatherDisplay:10.37,2013-05-21 05:47:00,
2013-05-20 22:52:00,64.5,60.2,29.92,SSE,164,4.0,4.0,86,0.00,CLR,,0.00,0.0,WeatherDisplay:10.37,2013-05-21 05:52:00,
2013-05-20 22:57:00,64.5,60.2,29.92,SSE,152,3.5,3.5,86,0.00,CLR,,0.00,0.0,WeatherDisplay:10.37,2013-05-21 05:57:00,
2013-05-20 23:02:00,64.5,60.2,29.92,SSE,152,3.5,3.5,86,0.00,CLR,,0.00,0.0,WeatherDisplay:10.37,2013-05-21 06:02:00,
2013-05-20 23:07:00,64.4,60.1,29.92,SSE,153,3.5,3.5,86,0.00,CLR,,0.00,0.0,WeatherDisplay:10.37,2013-05-21 06:07:00,
2013-05-20 23:12:00,64.5,60.2,29.92,SSE,154,3.5,3.5,86,0.00,CLR,,0.00,0.0,WeatherDisplay:10.37,2013-05-21 06:12:00,
2013-05-20 23:17:00,64.4,60.1,29.92,SSE,154,3.0,3.0,86,0.00,CLR,,0.00,0.0,WeatherDisplay:10.37,2013-05-21 06:17:00,
2013-05-20 23:22:00,64.4,60.1,29.92,SSE,154,2.3,2.3,86,0.00,CLR,,0.00,0.0,WeatherDisplay:10.37,2013-05-21 06:22:00,
2013-05-20 23:27:00,64.4,60.4,29.92,SSE,155,3.5,3.5,87,0.00,CLR,,0.00,0.0,WeatherDisplay:10.37,2013-05-21 06:27:00,
2013-05-20 23:32:00,64.3,60.3,29.92,SSE,155,5.0,5.0,87,0.00,CLR,,0.00,0.0,WeatherDisplay:10.37,2013-05-21 06:32:00,
2013-05-20 23:37:00,64.2,60.2,29.92,South,174,4.0,4.0,87,0.00,CLR,,0.00,0.0,WeatherDisplay:10.37,2013-05-21 06:37:00,
2013-05-20 23:42:00,64.2,59.9,29.92,SSE,167,4.0,4.0,86,0.00,CLR,,0.00,0.0,WeatherDisplay:10.37,2013-05-21 06:42:00,
2013-05-20 23:47:00,64.1,59.8,29.92,South,178,6.9,6.9,86,0.00,CLR,,0.00,0.0,WeatherDisplay:10.37,2013-05-21 06:47:00,
2013-05-20 23:52:00,64.0,60.1,29.92,SSE,161,3.5,3.5,87,0.00,CLR,,0.00,0.0,WeatherDisplay:10.37,2013-05-21 06:52:00,
2013-05-20 23:57:00,64.0,60.1,29.92,SSW,194,5.8,5.8,87,0.00,CLR,,0.00,0.0,WeatherDisplay:10.37,2013-05-21 06:57:00,